Location: College Park
(38.9810°N, 76.9370°W)
Time: 11:40:01
(UTC-05:00)

Hubble Space Telescope - Pass Details

Date: 18 November 2017
Orbit: 537 x 541 km, 28.5° (Epoch: 21 November)

Event Time Altitude Azimuth Distance (km) Brightness Sun altitude
Exits shadow 06:04:13 - 236° (SW) 2,526 3.8 -9.9°
Reaches altitude 10° 06:06:36 10° 219° (SW) 1,779 3.2 -9.5°
Maximum altitude 06:09:26 18° 175° (S) 1,346 3.1 -8.9°
Drops below altitude 10° 06:12:16 10° 131° (SE) 1,781 4.7 -8.4°
Sets 06:15:04 0° 112° (ESE) 2,673 6.9 -7.9°
